Location: La Silve
(44.2414°N, 5.8889°E)
Time: 05:17:33
(UTC+00:00)

Meteor 1-27 Rocket - Pass Details

Date: 01 December 2020
Orbit: 830 x 909 km, 81.3° (Epoch: 27 January)

Event Time Altitude Azimuth Distance (km) Brightness Sun altitude
Rises 18:13:13 0° 178° (S) 3,360 6.9 -23.4°
Reaches altitude 10° 18:15:38 10° 174° (S) 2,434 6.1 -23.8°
Enters shadow 18:20:32 58° 121° (ESE) 971 3.7 -24.7°
